Powrót do katalogu

SL-12 R/B

AUX MOTOR

AktywnyHEO
NORAD 21226·ROCKET BODY·🇷🇺 Russia

Wystrzelony Apr 4, 1991 z Baikonur Cosmodrome

Loading…

Następne Przeloty (najbliższe 24 godziny)

TLE

ŚwieżeSource: Space-Track

Epoka: Sep 13, 2026, 14:36 UTC

1 21226U 91025G   26256.60840678  .00018121  00000-0  13185-2 0  9993
2 21226  64.5303 339.4025 4405308  26.8348 350.4623  6.69884236669799

Śledź SL-12 R/B w czasie rzeczywistym z AllMySat

Download on the App Store